sat.trackr.live / text

‹ back to catalog

STARLINK-32304

NORAD 60738 · 2024-152U

PAYLOAD ACTIVE UNKNOWN

§ Identity

Operator
Country
US
Launch date
2024-08-28
Launch site
AFETR
Launch vehicle
Mass (kg)
RCS (m²)

Purposes: comms

External: N2YO · Heavens-Above · Gunter

§ Orbital elements

Epoch: 2026-09-21T19:08:57.537888Z

Period
93.85 min
Inclination
53.1596°
Eccentricity
0.0001154
Mean motion
15.34390383 rev/d
Perigee alt
461.9 km
Apogee alt
463.5 km
Semi-major
6,840.9 km
B*
-2.4496e-5
RAAN
75.5550°
Arg perigee
102.1503°
Mean anomaly
257.9629°
Rev number
11,690

§ Raw data

STARLINK-323041 60738U 24152U   26264.79788817 -.00001203  00000+0 -24496-4 0  99992 60738  53.1596  75.5550 0001154 102.1503 257.9629 15.34390383116901

JSON: /api/v1/satellites/60738 · /tle

For live sub-satellite position, see the globe view (requires WebGL).

§ Visibility from observer

Set your observer location to see the next 7 days of passes ≥ 10°. The values pass through the URL so the page stays shareable.

No JS? Fill the form by hand. The geolocation button needs JavaScript.